Orbital Elements at Epoch 2459200.5 (2020-Dec-17.0) TDB
Reference: JPL 24 (heliocentric ecliptic J2000)
Element | Value | Uncertainty (1-sigma) | Units |
e | .03566289868630357 | 4.2013e-08 | |
a | 2.48809229898552 | 1.3138e-08 | au |
q | 2.399359715404628 | 1.0965e-07 | au |
i | 11.5475764335858 | 4.5742e-06 | deg |
node | 151.9271464489314 | 1.911e-05 | deg |
peri | 163.3681593588633 | 6.5729e-05 | deg |
M | 316.0493898413285 | 6.1499e-05 | deg |
tp | 2459375.509073372394 (2021-Jun-10.00907337) | 0.00024468 | TDB |
period | 1433.501518786795 3.92 | 1.1354e-05 3.109e-08 | d yr |
n | .2511333230429196 | 1.9891e-09 | deg/d |
Q | 2.576824882566414 | 1.3606e-08 | au |
|
| | Orbit Determination Parameters
Additional Information
|